Location: Boiro
(42.6475°N, 8.8834°W)
Time: 01:11:05
(UTC+01:00)

Explorer 7 - Pass Details

Date: 08 December 2021
Orbit: 483 x 674 km, 50.3° (Epoch: 23 January)

Event Time Altitude Azimuth Distance (km) Brightness Sun altitude
Rises 04:45:35 0° 211° (SSW) 2,928 - -44.6°
Reaches altitude 10° 04:48:07 10° 202° (SSW) 1,994 - -44.1°
Maximum altitude 04:52:13 33° 138° (SE) 1,020 - -43.4°
Drops below altitude 10° 04:56:08 10° 74° (ENE) 1,896 - -42.7°
Exits shadow 04:57:21 - 69° (ENE) 2,338 10.7 -42.4°
Sets 04:58:29 0° 65° (ENE) 2,762 11.2 -42.2°
